Regional Weather Roundup
Issued by NWS

Home | Current Version | Previous Version | Text Only | Print | Product List | Glossary On
Versions: 1 2 3 4 5 6 7 8 9 10 11 12 13 14 15 16 17 18 19 20 21 22 23 24 25 26 27 28 29 30 31 32 33 34 35 36 37 38 39 40 41 42 43 44 45 46 47 48 49 50
259
ASUS44 KLIX 230605
RWRLA
LOUISIANA WEATHER ROUNDUP
NATIONAL WEATHER SERVICE NEW ORLEANS LA
100 AM CDT THU OCT 23 2014

NOTE: "FAIR" INDICATES FEW OR NO CLOUDS BELOW 12,000 FEET WITH NO
      SIGNIFICANT WEATHER AND/OR OBSTRUCTIONS TO VISIBILITY.
      SKY/WX - SKY CONDITION AND SIGNIFICANT WEATHER.
      TMP - AIR TEMPERATURE.    DP   - DEWPOINT TEMPERATURE.
      RH  - RELATIVE HUMIDITY.  PRES - PRESSURE.
      HX  - HEAT INDEX.         WCI  - WIND CHILL INDEX.

*  THESE STATIONS ARE NOT NWS OR FAA STATIONS AND ARE NOT UNDER
   NWS QUALITY CONTROL.

LAZ040-048-061>063-065-066-069-230700-
SOUTHEAST LOUISIANA

CITY           SKY/WX    TMP DP  RH WIND       PRES   REMARKS
N.O. AUDUBON     N/A     67  51  55 MISG        N/A
6HR MIN TEMP:  66; 6HR MAX TEMP:  73;

N.O. INTL ARPT CLEAR     68  50  52 E13       30.07S
6HR MIN TEMP:  66; 6HR MAX TEMP:  73;

N.O. LAKEFRONT LGT RAIN  68  51  54 E21       30.07F
6HR MIN TEMP:  68; 6HR MAX TEMP:  74; 6HR PCP: TRACE;

N.O. DOWNTOWN* FAIR      66  46  48 NE7       30.08S
6HR MIN TEMP:  66; 6HR MAX TEMP:  73;

SLIDELL        CLEAR     55  49  80 NE5       30.08F
6HR MIN TEMP:  54; 6HR MAX TEMP:  65;

BATON ROUGE    CLEAR     57  50  77 NE5       30.09S
6HR MIN TEMP:  57; 6HR MAX TEMP:  65;

BOOTHVILLE     CLEAR     72  57  59 NE9G17    30.04F
6HR MIN TEMP:  70; 6HR MAX TEMP:  73;

BELLE CHASSE   CLEAR     61  52  72 NE6       30.06S
6HR MIN TEMP:  57; 6HR MAX TEMP:  65;

BOGALUSA*        N/A     51  47  88 CALM      30.11F
6HR MIN TEMP:  50; 6HR MAX TEMP:  68;

NEW ROADS*     FAIR      57  51  79 N3        30.10S
6HR MIN TEMP:  56; 6HR MAX TEMP:  67;

GONZALES*      FAIR      60  54  79 NE3       30.07F
6HR MIN TEMP:  59; 6HR MAX TEMP:  64;

HAMMOND*       CLEAR     59  48  67 NE3       30.10S
HOUMA*         CLEAR     59  55  88 NE3       30.06S
6HR MIN TEMP:  56; 6HR MAX TEMP:  66;

PORT FOURCHON* CLEAR     70  63  78 NE7       30.07F

$$

LAZ041-044-053-054-230700-
SOUTHWEST LOUISIANA

CITY           SKY/WX    TMP DP  RH WIND       PRES   REMARKS
LAKE CHARLES   CLEAR     62  53  72 NE9       30.09F
6HR MIN TEMP:  62; 6HR MAX TEMP:  70;

LAFAYETTE      CLEAR     58  53  84 N6        30.09S
6HR MIN TEMP:  58; 6HR MAX TEMP:  69;

PATTERSON      CLEAR     57  55  94 NE3       30.09S
6HR MIN TEMP:  57; 6HR MAX TEMP:  68;

SALT POINT       N/A     63  56  78 VRB3      30.06S
6HR MIN TEMP:  63; 6HR MAX TEMP:  71;

NEW IBERIA     CLEAR     61  54  77 NE9       30.09S
6HR MIN TEMP:  61; 6HR MAX TEMP:  70;

CHENAULT AIRPK CLEAR     59  54  82 N6        30.10F

$$

LAZ027-028-230700-
CENTRAL LOUISIANA

CITY           SKY/WX    TMP DP  RH WIND       PRES   REMARKS
FORT POLK      CLEAR     60  51  73 NE6       30.11F
6HR MIN TEMP:  60; 6HR MAX TEMP:  68;

ALEXANDRIA INT CLEAR     56  50  80 N7        30.11F
6HR MIN TEMP:  56; 6HR MAX TEMP:  64;

ALEXANDRIA     CLEAR     55  49  80 VRB3      30.13S
6HR MIN TEMP:  51; 6HR MAX TEMP:  60;


$$

LAZ001-002-230700-
NORTHWEST LOUISIANA

CITY           SKY/WX    TMP DP  RH WIND       PRES   REMARKS
SHREVEPORT     MOCLDY    60  52  74 E6        30.13S
6HR MIN TEMP:  59; 6HR MAX TEMP:  67;

BARKSDALE AFB  PTCLDY    59  50  73 NE6       30.13F
6HR MIN TEMP:  57; 6HR MAX TEMP:  66;

DTN SHREVEPORT MOCLDY    58  52  80 CALM      30.14F
6HR MIN TEMP:  55; 6HR MAX TEMP:  68;


$$

LAZ014-016-230700-
NORTHEAST LOUISIANA

CITY           SKY/WX    TMP DP  RH WIND       PRES   REMARKS
MONROE         CLEAR     51  47  86 CALM      30.15F
6HR MIN TEMP:  51; 6HR MAX TEMP:  63;

TALLULAH       CLEAR     49  46  90 N3        30.14S
6HR MIN TEMP:  48; 6HR MAX TEMP:  62;


$$




USA.gov is the U.S. government's official web portal to all federal, state and local government web resources and services.